sat.trackr.live / text

‹ back to catalog

STARLINK-34356

NORAD 64303 · 2025-123N

PAYLOAD ACTIVE UNKNOWN

§ Identity

Operator
Country
US
Launch date
2025-06-08
Launch site
AFWTR
Launch vehicle
Mass (kg)
RCS (m²)

Purposes: comms

External: N2YO · Heavens-Above · Gunter

§ Orbital elements

Epoch: 2026-09-20T11:56:42.176832Z

Period
94.14 min
Inclination
69.9999°
Eccentricity
0.0003225
Mean motion
15.29582091 rev/d
Perigee alt
474.8 km
Apogee alt
479.3 km
Semi-major
6,855.2 km
B*
3.1321e-4
RAAN
61.0908°
Arg perigee
270.4398°
Mean anomaly
89.6408°
Rev number
7,085

§ Raw data

STARLINK-343561 64303U 25123N   26263.49771038  .00008887  00000+0  31321-3 0  99902 64303  69.9999  61.0908 0003225 270.4398  89.6408 15.29582091 70855

JSON: /api/v1/satellites/64303 · /tle

For live sub-satellite position, see the globe view (requires WebGL).

§ Visibility from observer

Set your observer location to see the next 7 days of passes ≥ 10°. The values pass through the URL so the page stays shareable.

No JS? Fill the form by hand. The geolocation button needs JavaScript.